Year,Month,Day,Hour,Minute,Value (Times are PST for temperature in C)
2014,08,11,00,00,22.50
2014,08,11,00,01,22.40
2014,08,11,00,02,22.40
2014,08,11,00,03,22.40
2014,08,11,00,04,22.40
2014,08,11,00,05,22.40
2014,08,11,00,06,22.40
2014,08,11,00,07,22.40
2014,08,11,00,08,22.40
2014,08,11,00,09,22.40
2014,08,11,00,10,22.40
2014,08,11,00,11,22.40
2014,08,11,00,12,22.30
2014,08,11,00,13,22.30
2014,08,11,00,14,22.30
2014,08,11,00,15,22.30
2014,08,11,00,16,22.30
2014,08,11,00,17,22.20
2014,08,11,00,18,22.20
2014,08,11,00,19,22.20
2014,08,11,00,20,22.20
2014,08,11,00,21,22.20
2014,08,11,00,22,22.20
2014,08,11,00,23,22.20
2014,08,11,00,24,22.20
2014,08,11,00,25,22.20
2014,08,11,00,26,22.20
2014,08,11,00,27,22.20
2014,08,11,00,28,22.20
2014,08,11,00,29,22.10
2014,08,11,00,30,22.10
2014,08,11,00,31,22.10
2014,08,11,00,32,22.10
2014,08,11,00,33,22.10
2014,08,11,00,34,22.00
2014,08,11,00,35,22.00
2014,08,11,00,36,22.00
2014,08,11,00,37,22.00
2014,08,11,00,38,22.00
2014,08,11,00,39,22.00
2014,08,11,00,40,22.00
2014,08,11,00,41,21.90
2014,08,11,00,42,21.90
2014,08,11,00,43,21.90
2014,08,11,00,44,21.90
2014,08,11,00,45,21.80
2014,08,11,00,46,21.80
2014,08,11,00,47,21.80
2014,08,11,00,48,21.80
2014,08,11,00,49,21.80
2014,08,11,00,50,21.70
2014,08,11,00,51,21.70
2014,08,11,00,52,21.70
2014,08,11,00,53,21.70
2014,08,11,00,54,21.70
2014,08,11,00,55,21.60
2014,08,11,00,56,21.60
2014,08,11,00,57,21.60
2014,08,11,00,58,21.60
2014,08,11,00,59,21.60
2014,08,11,01,00,21.50
2014,08,11,01,01,21.50
2014,08,11,01,02,21.50
2014,08,11,01,03,21.50
2014,08,11,01,04,21.50
2014,08,11,01,05,21.50
2014,08,11,01,06,21.40
2014,08,11,01,07,21.40
2014,08,11,01,08,21.40
2014,08,11,01,09,21.40
2014,08,11,01,10,21.40
2014,08,11,01,11,21.40
2014,08,11,01,12,21.40
2014,08,11,01,13,21.40
2014,08,11,01,14,21.30
2014,08,11,01,15,21.30
2014,08,11,01,16,21.30
2014,08,11,01,17,21.30
2014,08,11,01,18,21.30
2014,08,11,01,19,21.30
2014,08,11,01,20,21.30
2014,08,11,01,21,21.30
2014,08,11,01,22,21.30
2014,08,11,01,23,21.30
2014,08,11,01,24,21.30
2014,08,11,01,25,21.30
2014,08,11,01,26,21.20
2014,08,11,01,27,21.20
2014,08,11,01,28,21.20
2014,08,11,01,29,21.20
2014,08,11,01,30,21.20
2014,08,11,01,31,21.20
2014,08,11,01,32,21.20
2014,08,11,01,33,21.20
2014,08,11,01,34,21.20
2014,08,11,01,35,21.20
2014,08,11,01,36,21.20
2014,08,11,01,37,21.20
2014,08,11,01,38,21.20
2014,08,11,01,39,21.20
2014,08,11,01,40,21.20
2014,08,11,01,41,21.20
2014,08,11,01,42,21.20
2014,08,11,01,43,21.20
2014,08,11,01,44,21.20
2014,08,11,01,45,21.20
2014,08,11,01,46,21.20
2014,08,11,01,47,21.20
2014,08,11,01,48,21.20
2014,08,11,01,49,21.20
2014,08,11,01,50,21.20
2014,08,11,01,51,21.20
2014,08,11,01,52,21.20
2014,08,11,01,53,21.20
2014,08,11,01,54,21.20
2014,08,11,01,55,21.20
2014,08,11,01,56,21.20
2014,08,11,01,57,21.20
2014,08,11,01,58,21.20
2014,08,11,01,59,21.20
2014,08,11,02,00,21.20
2014,08,11,02,01,21.20
2014,08,11,02,02,21.10
2014,08,11,02,03,21.10
2014,08,11,02,04,21.10
2014,08,11,02,05,21.10
2014,08,11,02,06,21.10
2014,08,11,02,07,21.10
2014,08,11,02,08,21.10
2014,08,11,02,09,21.00
2014,08,11,02,10,21.00
2014,08,11,02,11,20.90
2014,08,11,02,12,20.90
2014,08,11,02,13,20.90
2014,08,11,02,14,20.90
2014,08,11,02,15,20.80
2014,08,11,02,16,20.80
2014,08,11,02,17,20.80
2014,08,11,02,18,20.80
2014,08,11,02,19,20.70
2014,08,11,02,20,20.70
2014,08,11,02,21,20.70
2014,08,11,02,22,20.60
2014,08,11,02,23,20.60
2014,08,11,02,24,20.60
2014,08,11,02,25,20.60
2014,08,11,02,26,20.50
2014,08,11,02,27,20.50
2014,08,11,02,28,20.50
2014,08,11,02,29,20.40
2014,08,11,02,30,20.40
2014,08,11,02,31,20.40
2014,08,11,02,32,20.40
2014,08,11,02,33,20.30
2014,08,11,02,34,20.30
2014,08,11,02,35,20.30
2014,08,11,02,36,20.30
2014,08,11,02,37,20.30
2014,08,11,02,38,20.20
2014,08,11,02,39,20.20
2014,08,11,02,40,20.20
2014,08,11,02,41,20.20
2014,08,11,02,42,20.10
2014,08,11,02,43,20.10
2014,08,11,02,44,20.10
2014,08,11,02,45,20.10
2014,08,11,02,46,20.10
2014,08,11,02,47,20.10
2014,08,11,02,48,20.00
2014,08,11,02,49,20.00
2014,08,11,02,50,20.00
2014,08,11,02,51,20.00
2014,08,11,02,52,20.00
2014,08,11,02,53,20.00
2014,08,11,02,54,19.90
2014,08,11,02,55,19.90
2014,08,11,02,56,20.00
2014,08,11,02,57,19.90
2014,08,11,02,58,19.90
2014,08,11,02,59,19.90
2014,08,11,03,00,19.90
2014,08,11,03,01,19.90
2014,08,11,03,02,19.90
2014,08,11,03,03,19.90
2014,08,11,03,04,19.90
2014,08,11,03,05,19.90
2014,08,11,03,06,19.90
2014,08,11,03,07,19.90
2014,08,11,03,08,19.80
2014,08,11,03,09,19.80
2014,08,11,03,10,19.80
2014,08,11,03,11,19.80
2014,08,11,03,12,19.80
2014,08,11,03,13,19.80
2014,08,11,03,14,19.80
2014,08,11,03,15,19.80
2014,08,11,03,16,19.70
2014,08,11,03,17,19.70
2014,08,11,03,18,19.70
2014,08,11,03,19,19.70
2014,08,11,03,20,19.70
2014,08,11,03,21,19.70
2014,08,11,03,22,19.60
2014,08,11,03,23,19.60
2014,08,11,03,24,19.60
2014,08,11,03,25,19.60
2014,08,11,03,26,19.60
2014,08,11,03,27,19.60
2014,08,11,03,28,19.50
2014,08,11,03,29,19.50
2014,08,11,03,30,19.50
2014,08,11,03,31,19.50
2014,08,11,03,32,19.40
2014,08,11,03,33,19.40
2014,08,11,03,34,19.40
2014,08,11,03,35,19.40
2014,08,11,03,36,19.40
2014,08,11,03,37,19.40
2014,08,11,03,38,19.40
2014,08,11,03,39,19.40
2014,08,11,03,40,19.30
2014,08,11,03,41,19.30
2014,08,11,03,42,19.30
2014,08,11,03,43,19.30
2014,08,11,03,44,19.30
2014,08,11,03,45,19.30
2014,08,11,03,46,19.30
2014,08,11,03,47,19.30
2014,08,11,03,48,19.30
2014,08,11,03,49,19.30
2014,08,11,03,50,19.20
2014,08,11,03,51,19.20
2014,08,11,03,52,19.20
2014,08,11,03,53,19.20
2014,08,11,03,54,19.20
2014,08,11,03,55,19.20
2014,08,11,03,56,19.20
2014,08,11,03,57,19.10
2014,08,11,03,58,19.10
2014,08,11,03,59,19.10
2014,08,11,04,00,19.10
2014,08,11,04,01,19.10
2014,08,11,04,02,19.10
2014,08,11,04,03,19.00
2014,08,11,04,04,19.00
2014,08,11,04,05,19.00
2014,08,11,04,06,19.00
2014,08,11,04,07,18.90
2014,08,11,04,08,18.90
2014,08,11,04,09,18.90
2014,08,11,04,10,18.90
2014,08,11,04,11,18.90
2014,08,11,04,12,18.90
2014,08,11,04,13,18.90
2014,08,11,04,14,18.90
2014,08,11,04,15,18.80
2014,08,11,04,16,18.80
2014,08,11,04,17,18.80
2014,08,11,04,18,18.80
2014,08,11,04,19,18.80
2014,08,11,04,20,18.80
2014,08,11,04,21,18.80
2014,08,11,04,22,18.80
2014,08,11,04,23,18.80
2014,08,11,04,24,18.80
2014,08,11,04,25,18.80
2014,08,11,04,26,18.80
2014,08,11,04,27,18.80
2014,08,11,04,28,18.80
2014,08,11,04,29,18.80
2014,08,11,04,30,18.80
2014,08,11,04,31,18.70
2014,08,11,04,32,18.70
2014,08,11,04,33,18.70
2014,08,11,04,34,18.70
2014,08,11,04,35,18.70
2014,08,11,04,36,18.70
2014,08,11,04,37,18.70
2014,08,11,04,38,18.70
2014,08,11,04,39,18.70
2014,08,11,04,40,18.70
2014,08,11,04,41,18.70
2014,08,11,04,42,18.70
2014,08,11,04,43,18.70
2014,08,11,04,44,18.70
2014,08,11,04,45,18.70
2014,08,11,04,46,18.60
2014,08,11,04,47,18.60
2014,08,11,04,48,18.60
2014,08,11,04,49,18.60
2014,08,11,04,50,18.60
2014,08,11,04,51,18.60
2014,08,11,04,52,18.60
2014,08,11,04,53,18.60
2014,08,11,04,54,18.50
2014,08,11,04,55,18.50
2014,08,11,04,56,18.50
2014,08,11,04,57,18.50
2014,08,11,04,58,18.50
2014,08,11,04,59,18.40
2014,08,11,05,00,18.40
2014,08,11,05,01,18.40
2014,08,11,05,02,18.40
2014,08,11,05,03,18.40
2014,08,11,05,04,18.40
2014,08,11,05,05,18.40
2014,08,11,05,06,18.30
2014,08,11,05,07,18.30
2014,08,11,05,08,18.30
2014,08,11,05,09,18.30
2014,08,11,05,10,18.30
2014,08,11,05,11,18.30
2014,08,11,05,12,18.30
2014,08,11,05,13,18.30
2014,08,11,05,14,18.20
2014,08,11,05,15,18.20
2014,08,11,05,16,18.20
2014,08,11,05,17,18.20
2014,08,11,05,18,18.20
2014,08,11,05,19,18.20
2014,08,11,05,20,18.20
2014,08,11,05,21,18.10
2014,08,11,05,22,18.10
2014,08,11,05,23,18.10
2014,08,11,05,24,18.10
2014,08,11,05,25,18.10
2014,08,11,05,26,18.10
2014,08,11,05,27,18.10
2014,08,11,05,28,18.10
2014,08,11,05,29,18.10
2014,08,11,05,30,18.00
2014,08,11,05,31,18.00
2014,08,11,05,32,18.00
2014,08,11,05,33,18.00
2014,08,11,05,34,17.90
2014,08,11,05,35,17.90
2014,08,11,05,36,17.90
2014,08,11,05,37,17.90
2014,08,11,05,38,17.90
2014,08,11,05,39,17.90
2014,08,11,05,40,17.90
2014,08,11,05,41,17.90
2014,08,11,05,42,17.80
2014,08,11,05,43,17.80
2014,08,11,05,44,17.80
2014,08,11,05,45,17.80
2014,08,11,05,46,17.80
2014,08,11,05,47,17.70
2014,08,11,05,48,17.70
2014,08,11,05,49,17.70
2014,08,11,05,50,17.70
2014,08,11,05,51,17.70
2014,08,11,05,52,17.60
2014,08,11,05,53,17.60
2014,08,11,05,54,17.60
2014,08,11,05,55,17.60
2014,08,11,05,56,17.60
2014,08,11,05,57,17.60
2014,08,11,05,58,17.60
2014,08,11,05,59,17.50
2014,08,11,06,00,17.50
2014,08,11,06,01,17.50
2014,08,11,06,02,17.50
2014,08,11,06,03,17.50
2014,08,11,06,04,17.40
2014,08,11,06,05,17.40
2014,08,11,06,06,17.40
2014,08,11,06,07,17.40
2014,08,11,06,08,17.40
2014,08,11,06,09,17.40
2014,08,11,06,10,17.40
2014,08,11,06,11,17.30
2014,08,11,06,12,17.30
2014,08,11,06,13,17.30
2014,08,11,06,14,17.30
2014,08,11,06,15,17.30
2014,08,11,06,16,17.30
2014,08,11,06,17,17.20
2014,08,11,06,18,17.20
2014,08,11,06,19,17.20
2014,08,11,06,20,17.20
2014,08,11,06,21,17.20
2014,08,11,06,22,17.20
2014,08,11,06,23,17.20
2014,08,11,06,24,17.20
2014,08,11,06,25,17.20
2014,08,11,06,26,17.20
2014,08,11,06,27,17.10
2014,08,11,06,28,17.10
2014,08,11,06,29,17.10
2014,08,11,06,30,17.10
2014,08,11,06,31,17.10
2014,08,11,06,32,17.10
2014,08,11,06,33,17.10
2014,08,11,06,34,17.10
2014,08,11,06,35,17.10
2014,08,11,06,36,17.10
2014,08,11,06,37,17.10
2014,08,11,06,38,17.10
2014,08,11,06,39,17.10
2014,08,11,06,40,17.10
2014,08,11,06,41,17.10
2014,08,11,06,42,17.10
2014,08,11,06,43,17.10
2014,08,11,06,44,17.10
2014,08,11,06,45,17.10
2014,08,11,06,46,17.10
2014,08,11,06,47,17.10
2014,08,11,06,48,17.10
2014,08,11,06,49,17.10
2014,08,11,06,50,17.10
2014,08,11,06,51,17.10
2014,08,11,06,52,17.20
2014,08,11,06,53,17.20
2014,08,11,06,54,17.20
2014,08,11,06,55,17.20
2014,08,11,06,56,17.20
2014,08,11,06,57,17.20
2014,08,11,06,58,17.20
2014,08,11,06,59,17.20
2014,08,11,07,00,17.20
2014,08,11,07,01,17.20
2014,08,11,07,02,17.20
2014,08,11,07,03,17.20
2014,08,11,07,04,17.20
2014,08,11,07,05,17.20
2014,08,11,07,06,17.20
2014,08,11,07,07,17.30
2014,08,11,07,08,17.30
2014,08,11,07,09,17.30
2014,08,11,07,10,17.30
2014,08,11,07,11,17.30
2014,08,11,07,12,17.30
2014,08,11,07,13,17.30
2014,08,11,07,14,17.40
2014,08,11,07,15,17.40
2014,08,11,07,16,17.40
2014,08,11,07,17,17.40
2014,08,11,07,18,17.40
2014,08,11,07,19,17.50
2014,08,11,07,20,17.50
2014,08,11,07,21,17.50
2014,08,11,07,22,17.60
2014,08,11,07,23,17.60
2014,08,11,07,24,17.60
2014,08,11,07,25,17.70
2014,08,11,07,26,17.70
2014,08,11,07,27,17.70
2014,08,11,07,28,17.80
2014,08,11,07,29,17.80
2014,08,11,07,30,17.80
2014,08,11,07,31,17.90
2014,08,11,07,32,17.90
2014,08,11,07,33,17.90
2014,08,11,07,34,17.90
2014,08,11,07,35,18.00
2014,08,11,07,36,18.00
2014,08,11,07,37,18.00
2014,08,11,07,38,18.10
2014,08,11,07,39,18.10
2014,08,11,07,40,18.10
2014,08,11,07,41,18.10
2014,08,11,07,42,18.20
2014,08,11,07,43,18.20
2014,08,11,07,44,18.30
2014,08,11,07,45,18.30
2014,08,11,07,46,18.30
2014,08,11,07,47,18.30
2014,08,11,07,48,18.30
2014,08,11,07,49,18.30
2014,08,11,07,50,18.40
2014,08,11,07,51,18.40
2014,08,11,07,52,18.40
2014,08,11,07,53,18.40
2014,08,11,07,54,18.50
2014,08,11,07,55,18.50
2014,08,11,07,56,18.60
2014,08,11,07,57,18.60
2014,08,11,07,58,18.60
2014,08,11,07,59,18.70
2014,08,11,08,00,18.70
2014,08,11,08,01,18.80
2014,08,11,08,02,18.80
2014,08,11,08,03,18.80
2014,08,11,08,04,18.80
2014,08,11,08,05,18.90
2014,08,11,08,06,19.00
2014,08,11,08,07,19.00
2014,08,11,08,08,19.10
2014,08,11,08,09,19.10
2014,08,11,08,10,19.10
2014,08,11,08,11,19.20
2014,08,11,08,12,19.20
2014,08,11,08,13,19.30
2014,08,11,08,14,19.30
2014,08,11,08,15,19.40
2014,08,11,08,16,19.50
2014,08,11,08,17,19.50
2014,08,11,08,18,19.50
2014,08,11,08,19,19.60
2014,08,11,08,20,19.70
2014,08,11,08,21,19.80
2014,08,11,08,22,19.80
2014,08,11,08,23,19.90
2014,08,11,08,24,19.90
2014,08,11,08,25,19.90
2014,08,11,08,26,20.00
2014,08,11,08,27,20.00
2014,08,11,08,28,20.10
2014,08,11,08,29,20.10
2014,08,11,08,30,20.20
2014,08,11,08,31,20.30
2014,08,11,08,32,20.30
2014,08,11,08,33,20.40
2014,08,11,08,34,20.40
2014,08,11,08,35,20.50
2014,08,11,08,36,20.50
2014,08,11,08,37,20.60
2014,08,11,08,38,20.60
2014,08,11,08,39,20.60
2014,08,11,08,40,20.70
2014,08,11,08,41,20.70
2014,08,11,08,42,20.70
2014,08,11,08,43,20.70
2014,08,11,08,44,20.80
2014,08,11,08,45,20.80
2014,08,11,08,46,20.80
2014,08,11,08,47,20.90
2014,08,11,08,48,20.90
2014,08,11,08,49,21.00
2014,08,11,08,50,21.00
2014,08,11,08,51,21.10
2014,08,11,08,52,21.10
2014,08,11,08,53,21.10
2014,08,11,08,54,21.20
2014,08,11,08,55,21.20
2014,08,11,08,56,21.20
2014,08,11,08,57,21.30
2014,08,11,08,58,21.30
2014,08,11,08,59,21.30
2014,08,11,09,00,21.40
2014,08,11,09,01,21.40
2014,08,11,09,02,21.50
2014,08,11,09,03,21.50
2014,08,11,09,04,21.50
2014,08,11,09,05,21.50
2014,08,11,09,06,21.50
2014,08,11,09,07,21.50
2014,08,11,09,08,21.40
2014,08,11,09,09,21.40
2014,08,11,09,10,21.40
2014,08,11,09,11,21.40
2014,08,11,09,12,21.40
2014,08,11,09,13,21.50
2014,08,11,09,14,21.50
2014,08,11,09,15,21.50
2014,08,11,09,16,21.60
2014,08,11,09,17,21.60
2014,08,11,09,18,21.60
2014,08,11,09,19,21.70
2014,08,11,09,20,21.70
2014,08,11,09,21,21.70
2014,08,11,09,22,21.80
2014,08,11,09,23,21.80
2014,08,11,09,24,21.80
2014,08,11,09,25,21.90
2014,08,11,09,26,21.90
2014,08,11,09,27,22.00
2014,08,11,09,28,22.00
2014,08,11,09,29,22.00
2014,08,11,09,30,22.00
2014,08,11,09,31,22.00
2014,08,11,09,32,22.00
2014,08,11,09,33,22.00
2014,08,11,09,34,22.10
2014,08,11,09,35,22.00
2014,08,11,09,36,22.10
2014,08,11,09,37,22.10
2014,08,11,09,38,22.10
2014,08,11,09,39,22.10
2014,08,11,09,40,22.20
2014,08,11,09,41,22.20
2014,08,11,09,42,22.20
2014,08,11,09,43,22.20
2014,08,11,09,44,22.30
2014,08,11,09,45,22.30
2014,08,11,09,46,22.30
2014,08,11,09,47,22.30
2014,08,11,09,48,22.30
2014,08,11,09,49,22.30
2014,08,11,09,50,22.40
2014,08,11,09,51,22.40
2014,08,11,09,52,22.40
2014,08,11,09,53,22.50
2014,08,11,09,54,22.50
2014,08,11,09,55,22.60
2014,08,11,09,56,22.60
2014,08,11,09,57,22.70
2014,08,11,09,58,22.80
2014,08,11,09,59,22.80
2014,08,11,10,00,22.90
2014,08,11,10,01,22.90
2014,08,11,10,02,23.00
2014,08,11,10,03,23.00
2014,08,11,10,04,23.10
2014,08,11,10,05,23.20
2014,08,11,10,06,23.20
2014,08,11,10,07,23.20
2014,08,11,10,08,23.20
2014,08,11,10,09,23.30
2014,08,11,10,10,23.30
2014,08,11,10,11,23.30
2014,08,11,10,12,23.30
2014,08,11,10,13,23.30
2014,08,11,10,14,23.30
2014,08,11,10,15,23.30
2014,08,11,10,16,23.30
2014,08,11,10,17,23.30
2014,08,11,10,18,23.20
2014,08,11,10,19,23.20
2014,08,11,10,20,23.20
2014,08,11,10,21,23.20
2014,08,11,10,22,23.20
2014,08,11,10,23,23.20
2014,08,11,10,24,23.20
2014,08,11,10,25,23.20
2014,08,11,10,26,23.20
2014,08,11,10,27,23.30
2014,08,11,10,28,23.30
2014,08,11,10,29,23.40
2014,08,11,10,30,23.40
2014,08,11,10,31,23.40
2014,08,11,10,32,23.40
2014,08,11,10,33,23.30
2014,08,11,10,34,23.20
2014,08,11,10,35,23.20
2014,08,11,10,36,23.30
2014,08,11,10,37,23.30
2014,08,11,10,38,23.30
2014,08,11,10,39,23.40
2014,08,11,10,40,23.50
2014,08,11,10,41,23.50
2014,08,11,10,42,23.60
2014,08,11,10,43,23.70
2014,08,11,10,44,23.70
2014,08,11,10,45,23.70
2014,08,11,10,46,23.70
2014,08,11,10,47,23.80
2014,08,11,10,48,23.80
2014,08,11,10,49,23.80
2014,08,11,10,50,23.80
2014,08,11,10,51,23.80
2014,08,11,10,52,23.80
2014,08,11,10,53,23.80
2014,08,11,10,54,23.80
2014,08,11,10,55,23.80
2014,08,11,10,56,23.80
2014,08,11,10,57,23.90
2014,08,11,10,58,23.90
2014,08,11,10,59,24.00
2014,08,11,11,00,24.00
2014,08,11,11,01,24.00
2014,08,11,11,02,24.00
2014,08,11,11,03,24.10
2014,08,11,11,04,24.10
2014,08,11,11,05,24.10
2014,08,11,11,06,24.10
2014,08,11,11,07,24.10
2014,08,11,11,08,24.20
2014,08,11,11,09,24.20
2014,08,11,11,10,24.20
2014,08,11,11,11,24.20
2014,08,11,11,12,24.20
2014,08,11,11,13,24.20
2014,08,11,11,14,24.20
2014,08,11,11,15,24.20
2014,08,11,11,16,24.10
2014,08,11,11,17,24.10
2014,08,11,11,18,24.10
2014,08,11,11,19,24.10
2014,08,11,11,20,24.10
2014,08,11,11,21,24.10
2014,08,11,11,22,24.10
2014,08,11,11,23,24.10
2014,08,11,11,24,24.10
2014,08,11,11,25,24.10
2014,08,11,11,26,24.10
2014,08,11,11,27,24.10
2014,08,11,11,28,24.10
2014,08,11,11,29,24.10
2014,08,11,11,30,24.10
2014,08,11,11,31,24.10
2014,08,11,11,32,24.10
2014,08,11,11,33,24.10
2014,08,11,11,34,24.20
2014,08,11,11,35,24.30
2014,08,11,11,36,24.30
2014,08,11,11,37,24.40
2014,08,11,11,38,24.40
2014,08,11,11,39,24.50
2014,08,11,11,40,24.60
2014,08,11,11,41,24.60
2014,08,11,11,42,24.70
2014,08,11,11,43,24.70
2014,08,11,11,44,24.70
2014,08,11,11,45,24.70
2014,08,11,11,46,24.60
2014,08,11,11,47,24.60
2014,08,11,11,48,24.60
2014,08,11,11,49,24.60
2014,08,11,11,50,24.60
2014,08,11,11,51,24.50
2014,08,11,11,52,24.50
2014,08,11,11,53,24.40
2014,08,11,11,54,24.40
2014,08,11,11,55,24.50
2014,08,11,11,56,24.50
2014,08,11,11,57,24.60
2014,08,11,11,58,24.60
2014,08,11,11,59,24.60
2014,08,11,12,00,24.70
2014,08,11,12,01,24.70
2014,08,11,12,02,24.70
2014,08,11,12,03,24.70
2014,08,11,12,04,24.70
2014,08,11,12,05,24.70
2014,08,11,12,06,24.70
2014,08,11,12,07,24.70
2014,08,11,12,08,24.70
2014,08,11,12,09,24.70
2014,08,11,12,10,24.80
2014,08,11,12,11,24.80
2014,08,11,12,12,24.80
2014,08,11,12,13,24.90
2014,08,11,12,14,24.90
2014,08,11,12,15,24.90
2014,08,11,12,16,24.80
2014,08,11,12,17,24.80
2014,08,11,12,18,24.70
2014,08,11,12,19,24.60
2014,08,11,12,20,24.60
2014,08,11,12,21,24.60
2014,08,11,12,22,24.60
2014,08,11,12,23,24.60
2014,08,11,12,24,24.70
2014,08,11,12,25,24.70
2014,08,11,12,26,24.80
2014,08,11,12,27,24.80
2014,08,11,12,28,24.90
2014,08,11,12,29,24.90
2014,08,11,12,30,24.90
2014,08,11,12,31,25.00
2014,08,11,12,32,25.00
2014,08,11,12,33,25.10
2014,08,11,12,34,25.20
2014,08,11,12,35,25.30
2014,08,11,12,36,25.40
2014,08,11,12,37,25.50
2014,08,11,12,38,25.60
2014,08,11,12,39,25.60
2014,08,11,12,40,25.60
2014,08,11,12,41,25.70
2014,08,11,12,42,25.60
2014,08,11,12,43,25.60
2014,08,11,12,44,25.60
2014,08,11,12,45,25.70
2014,08,11,12,46,25.80
2014,08,11,12,47,25.90
2014,08,11,12,48,25.90
2014,08,11,12,49,26.00
2014,08,11,12,50,26.10
2014,08,11,12,51,26.10
2014,08,11,12,52,26.20
2014,08,11,12,53,26.20
2014,08,11,12,54,26.20
2014,08,11,12,55,26.30
2014,08,11,12,56,26.40
2014,08,11,12,57,26.40
2014,08,11,12,58,26.40
2014,08,11,12,59,26.50
2014,08,11,13,00,26.60
2014,08,11,13,01,26.60
2014,08,11,13,02,26.70
2014,08,11,13,03,26.70
2014,08,11,13,04,26.70
2014,08,11,13,05,26.80
2014,08,11,13,06,26.80
2014,08,11,13,07,26.90
2014,08,11,13,08,26.90
2014,08,11,13,09,27.00
2014,08,11,13,10,27.00
2014,08,11,13,11,27.00
2014,08,11,13,12,27.10
2014,08,11,13,13,27.10
2014,08,11,13,14,27.20
2014,08,11,13,15,27.20
2014,08,11,13,16,27.20
2014,08,11,13,17,27.20
2014,08,11,13,18,27.30
2014,08,11,13,19,27.40
2014,08,11,13,20,27.40
2014,08,11,13,21,27.40
2014,08,11,13,22,27.40
2014,08,11,13,23,27.40
2014,08,11,13,24,27.40
2014,08,11,13,25,27.50
2014,08,11,13,26,27.60
2014,08,11,13,27,27.60
2014,08,11,13,28,27.70
2014,08,11,13,29,27.70
2014,08,11,13,30,27.70
2014,08,11,13,31,27.80
2014,08,11,13,32,27.80
2014,08,11,13,33,27.80
2014,08,11,13,34,27.90
2014,08,11,13,35,27.90
2014,08,11,13,36,28.00
2014,08,11,13,37,28.00
2014,08,11,13,38,28.00
2014,08,11,13,39,28.10
2014,08,11,13,40,28.10
2014,08,11,13,41,28.10
2014,08,11,13,42,28.10
2014,08,11,13,43,28.10
2014,08,11,13,44,28.20
2014,08,11,13,45,28.20
2014,08,11,13,46,28.20
2014,08,11,13,47,28.20
2014,08,11,13,48,28.20
2014,08,11,13,49,28.20
2014,08,11,13,50,28.30
2014,08,11,13,51,28.30
2014,08,11,13,52,28.30
2014,08,11,13,53,28.20
2014,08,11,13,54,28.30
2014,08,11,13,55,28.30
2014,08,11,13,56,28.40
2014,08,11,13,57,28.40
2014,08,11,13,58,28.40
2014,08,11,13,59,28.40
2014,08,11,14,00,28.30
2014,08,11,14,01,28.30
2014,08,11,14,02,28.30
2014,08,11,14,03,28.20
2014,08,11,14,04,28.20
2014,08,11,14,05,28.20
2014,08,11,14,06,28.10
2014,08,11,14,07,28.10
2014,08,11,14,08,28.10
2014,08,11,14,09,28.10
2014,08,11,14,10,28.10
2014,08,11,14,11,28.10
2014,08,11,14,12,28.10
2014,08,11,14,13,28.10
2014,08,11,14,14,28.00
2014,08,11,14,15,28.00
2014,08,11,14,16,28.10
2014,08,11,14,17,28.10
2014,08,11,14,18,28.10
2014,08,11,14,19,28.20
2014,08,11,14,20,28.20
2014,08,11,14,21,28.20
2014,08,11,14,22,28.20
2014,08,11,14,23,28.20
2014,08,11,14,24,28.20
2014,08,11,14,25,28.20
2014,08,11,14,26,28.10
2014,08,11,14,27,28.10
2014,08,11,14,28,28.10
2014,08,11,14,29,28.10
2014,08,11,14,30,28.10
2014,08,11,14,31,28.10
2014,08,11,14,32,28.20
2014,08,11,14,33,28.20
2014,08,11,14,34,28.30
2014,08,11,14,35,28.40
2014,08,11,14,36,28.50
2014,08,11,14,37,28.50
2014,08,11,14,38,28.50
2014,08,11,14,39,28.50
2014,08,11,14,40,28.60
2014,08,11,14,41,28.60
2014,08,11,14,42,28.70
2014,08,11,14,43,28.70
2014,08,11,14,44,28.80
2014,08,11,14,45,28.80
2014,08,11,14,46,28.80
2014,08,11,14,47,28.80
2014,08,11,14,48,28.90
2014,08,11,14,49,28.90
2014,08,11,14,50,29.00
2014,08,11,14,51,29.00
2014,08,11,14,52,29.10
2014,08,11,14,53,29.10
2014,08,11,14,54,29.10
2014,08,11,14,55,29.10
2014,08,11,14,56,29.20
2014,08,11,14,57,29.20
2014,08,11,14,58,29.20
2014,08,11,14,59,29.20
2014,08,11,15,00,29.20
2014,08,11,15,01,29.20
2014,08,11,15,02,29.20
2014,08,11,15,03,29.20
2014,08,11,15,04,29.20
2014,08,11,15,05,29.20
2014,08,11,15,06,29.20
2014,08,11,15,07,29.20
2014,08,11,15,08,29.20
2014,08,11,15,09,29.30
2014,08,11,15,10,29.30
2014,08,11,15,11,29.30
2014,08,11,15,12,29.30
2014,08,11,15,13,29.40
2014,08,11,15,14,29.40
2014,08,11,15,15,29.40
2014,08,11,15,16,29.40
2014,08,11,15,17,29.40
2014,08,11,15,18,29.50
2014,08,11,15,19,29.60
2014,08,11,15,20,29.60
2014,08,11,15,21,29.60
2014,08,11,15,22,29.60
2014,08,11,15,23,29.60
2014,08,11,15,24,29.50
2014,08,11,15,25,29.50
2014,08,11,15,26,29.50
2014,08,11,15,27,29.50
2014,08,11,15,28,29.50
2014,08,11,15,29,29.40
2014,08,11,15,30,29.40
2014,08,11,15,31,29.30
2014,08,11,15,32,29.30
2014,08,11,15,33,29.30
2014,08,11,15,34,29.30
2014,08,11,15,35,29.30
2014,08,11,15,36,29.30
2014,08,11,15,37,29.30
2014,08,11,15,38,29.30
2014,08,11,15,39,29.30
2014,08,11,15,40,29.40
2014,08,11,15,41,29.40
2014,08,11,15,42,29.40
2014,08,11,15,43,29.40
2014,08,11,15,44,29.40
2014,08,11,15,45,29.40
2014,08,11,15,46,29.40
2014,08,11,15,47,29.40
2014,08,11,15,48,29.50
2014,08,11,15,49,29.50
2014,08,11,15,50,29.60
2014,08,11,15,51,29.70
2014,08,11,15,52,29.70
2014,08,11,15,53,29.70
2014,08,11,15,54,29.70
2014,08,11,15,55,29.60
2014,08,11,15,56,29.60
2014,08,11,15,57,29.50
2014,08,11,15,58,29.40
2014,08,11,15,59,29.30
2014,08,11,16,00,29.30
2014,08,11,16,01,29.30
2014,08,11,16,02,29.20
2014,08,11,16,03,29.20
2014,08,11,16,04,29.20
2014,08,11,16,05,29.20
2014,08,11,16,06,29.20
2014,08,11,16,07,29.20
2014,08,11,16,08,29.10
2014,08,11,16,09,29.10
2014,08,11,16,10,29.10
2014,08,11,16,11,29.00
2014,08,11,16,12,28.90
2014,08,11,16,13,28.90
2014,08,11,16,14,28.80
2014,08,11,16,15,28.70
2014,08,11,16,16,28.70
2014,08,11,16,17,28.60
2014,08,11,16,18,28.50
2014,08,11,16,19,28.40
2014,08,11,16,20,28.40
2014,08,11,16,21,28.30
2014,08,11,16,22,28.30
2014,08,11,16,23,28.30
2014,08,11,16,24,28.30
2014,08,11,16,25,28.30
2014,08,11,16,26,28.30
2014,08,11,16,27,28.30
2014,08,11,16,28,28.30
2014,08,11,16,29,28.30
2014,08,11,16,30,28.20
2014,08,11,16,31,28.20
2014,08,11,16,32,28.20
2014,08,11,16,33,28.20
2014,08,11,16,34,28.20
2014,08,11,16,35,28.30
2014,08,11,16,36,28.30
2014,08,11,16,37,28.30
2014,08,11,16,38,28.40
2014,08,11,16,39,28.40
2014,08,11,16,40,28.40
2014,08,11,16,41,28.40
2014,08,11,16,42,28.40
2014,08,11,16,43,28.50
2014,08,11,16,44,28.50
2014,08,11,16,45,28.60
2014,08,11,16,46,28.60
2014,08,11,16,47,28.70
2014,08,11,16,48,28.70
2014,08,11,16,49,28.70
2014,08,11,16,50,28.80
2014,08,11,16,51,28.80
2014,08,11,16,52,28.80
2014,08,11,16,53,28.90
2014,08,11,16,54,28.90
2014,08,11,16,55,28.90
2014,08,11,16,56,28.90
2014,08,11,16,57,29.00
2014,08,11,16,58,29.00
2014,08,11,16,59,29.00
2014,08,11,17,00,29.00
2014,08,11,17,01,29.00
2014,08,11,17,02,29.00
2014,08,11,17,03,29.00
2014,08,11,17,04,28.90
2014,08,11,17,05,28.90
2014,08,11,17,06,28.80
2014,08,11,17,07,28.80
2014,08,11,17,08,28.70
2014,08,11,17,09,28.70
2014,08,11,17,10,28.60
2014,08,11,17,11,28.60
2014,08,11,17,12,28.50
2014,08,11,17,13,28.40
2014,08,11,17,14,28.40
2014,08,11,17,15,28.40
2014,08,11,17,16,28.30
2014,08,11,17,17,28.30
2014,08,11,17,18,28.30
2014,08,11,17,19,28.30